Location: Famechon
(49.7599°N, 2.0615°E)
Time: 14:24:56
(UTC+00:00)

CZ-4B R/B - Pass Details

Date: 03 February 2023
Orbit: 809 x 881 km, 99.0° (Epoch: 25 March)

Event Time Altitude Azimuth Distance (km) Brightness Sun altitude
Rises 17:49:45 0° 138° (SE) 3,341 6.0 -10.0°
Reaches altitude 10° 17:52:11 10° 131° (SE) 2,421 5.3 -10.4°
Maximum altitude 17:57:08 40° 64° (ENE) 1,218 3.6 -11.1°
Drops below altitude 10° 18:02:12 10° 357° (N) 2,478 5.6 -11.9°
Sets 18:04:43 0° 350° (N) 3,429 6.4 -12.3°
